Weather History for Munising, MI

Change the Weather History Date:

Monday, July 1, 2013

  Actual Average (KISQ) Record (KISQ)
Temperature  
Mean Temperature 54 °F -  
Max Temperature 62 °F 73 °F 89 °F (1975)
Min Temperature 45 °F 53 °F 35 °F (1960)
Degree Days  
Heating Degree Days 12    
Growing Degree Days 4 (Base 50)    
Moisture  
Dew Point 46 °F    
Average Humidity 73    
Maximum Humidity 86    
Minimum Humidity 54    
Precipitation  
Precipitation 0.00 in - - ()
Sea Level Pressure  
Sea Level Pressure 30.19 in    
Wind  
Wind Speed 7 mph (NE)    
Max Wind Speed 15 mph    
Max Gust Speed -    
Averages and records for this station are not official NWS values.
T = Trace of Precipitation, MM = Missing Value Source: NWS Daily Summary

Daily Weather History Graph

Daily Weather History Graph

Search for Another Location

Airport:

Trip Planner

Search our weather history database for the weather conditions in past years. The results will help you decide how hot, cold, wet, or windy it might be!

Date:

Astronomy

Jul. 01, 2013 Rise Set
Actual Time 5:58 AM EDT 9:42 PM EDT
Civil Twilight 5:19 AM EDT 10:21 PM EDT
Nautical Twilight 4:27 AM EDT 11:13 PM EDT
Astronomical Twilight 3:13 AM EDT 12:26 AM EDT
Moon 1:41 AM EDT 3:45 PM EDT
Length of Visible Light 17h 01m
Length of Day
15h 44m
Waning Crescent, 35% of the Moon is Illuminated
Jul 1
Waning Crescent
Jul 8
New
Jul 15
First Quarter
Jul 22
Full
Jul 29
Last Quarter

Hourly Weather History & Observations

Time (EDT) Temp. Windchill Dew Point Humidity Pressure Visibility Wind Dir Wind Speed Gust Speed Precip Events Conditions
12:56 AM 50.0 °F - 45.0 °F 83% 30.11 in - South 4.6 mph - N/A   Unknown
1:56 AM 48.9 °F - 44.1 °F 83% 30.12 in - South 4.6 mph - N/A   Unknown
2:56 AM 48.0 °F - 43.0 °F 83% 30.12 in - South 4.6 mph - N/A   Unknown
3:56 AM 46.9 °F - 42.1 °F 83% 30.13 in - South 4.6 mph - N/A   Unknown
4:56 AM 46.0 °F 44.8 °F 42.1 °F 86% 30.14 in - South 3.5 mph - N/A   Unknown
5:56 AM 46.0 °F 43.1 °F 42.1 °F 86% 30.14 in - South 5.8 mph - N/A   Unknown
6:56 AM 48.0 °F - 43.0 °F 83% 30.16 in - South 4.6 mph - N/A   Unknown
7:56 AM 53.1 °F - 46.0 °F 77% 30.17 in - Calm Calm - N/A   Unknown
8:56 AM 57.9 °F - 50.0 °F 75% 30.19 in - NNE 4.6 mph - N/A   Unknown
9:56 AM 59.0 °F - 50.0 °F 72% 30.20 in - NE 6.9 mph - N/A   Unknown
10:56 AM 61.0 °F - 51.1 °F 70% 30.20 in - NE 8.1 mph - N/A   Unknown
11:56 AM 60.1 °F - 52.0 °F 75% 30.22 in - NE 9.2 mph - N/A   Unknown
12:56 PM 60.1 °F - 51.1 °F 72% 30.22 in - NNE 13.8 mph - N/A   Unknown
1:56 PM 61.0 °F - 50.0 °F 67% 30.22 in - NNE 10.4 mph - N/A   Unknown
2:56 PM 61.0 °F - 48.0 °F 62% 30.23 in - NE 9.2 mph - N/A   Unknown
3:56 PM 59.0 °F - 46.9 °F 64% 30.23 in - North 15.0 mph - N/A   Unknown
4:56 PM 60.1 °F - 46.0 °F 60% 30.22 in - North 13.8 mph - N/A   Unknown
5:56 PM 61.0 °F - 45.0 °F 56% 30.22 in - NE 11.5 mph - N/A   Unknown
6:56 PM 61.0 °F - 44.1 °F 54% 30.22 in - NNE 10.4 mph - N/A   Unknown
7:20 PM 57.2 °F - 46.4 °F 67% 30.21 in - NW 13.8 mph - N/A   Unknown
7:56 PM 57.0 °F - 46.0 °F 67% 30.22 in - NNW 11.5 mph - N/A   Unknown
8:56 PM 55.9 °F - 46.0 °F 69% 30.22 in - NNE 8.1 mph - N/A   Unknown
9:56 PM 54.0 °F - 44.1 °F 69% 30.22 in - NNW 4.6 mph - N/A   Unknown
10:56 PM 46.9 °F - 41.0 °F 80% 30.22 in - South 3.5 mph - N/A   Unknown
11:56 PM 45.0 °F 41.8 °F 39.9 °F 82% 30.22 in - South 5.8 mph - N/A   Unknown